Regional Weather Roundup
Issued by NWS Wakefield, VA

Home | Current Version | Previous Version | Graphics & Text | Print | Product List | Glossary On
Versions: 1 2 3 4 5 6 7 8 9 10 11 12 13 14 15 16 17 18 19 20 21 22 23 24 25 26 27 28 29 30 31 32 33 34 35 36 37 38 39 40 41 42 43 44 45 46 47 48 49 50
693
ASUS41 KAKQ 282115
RWRAKQ

REGIONAL WEATHER ROUNDUP
NATIONAL WEATHER SERVICE WAKEFIELD VA
500 PM EDT FRI APR 28 2017

Note: "fair" indicates few or no clouds below 12,000 feet with no
significant weather and/or obstructions to visibility. * = Denotes
station may not report precipitation (e.g., rain,snow,etc.),
thunder or fog.

VAZ042-051-052>054-056-282200-
NORTHERN VIRGINIA

CITY           SKY/WX    TMP DP  RH WIND       PRES   REMARKS
WASH NATIONAL  MOSUNNY   83  61  47 S9        30.00F
DULLES         MOSUNNY   83  58  42 S10       30.00S
FORT BELVOIR   SUNNY     83  59  43 S7        30.00S
QUANTICO       SUNNY     79  69  71 S9        30.00F
FREDERICKSBRG* SUNNY     85  63  47 SE7       29.99S
STAFFORD*      MOSUNNY   83  61  45 SE8       30.03F
WARRENTON      SUNNY     87  53  32 S8        30.00S
CULPEPER*      SUNNY     85  61  44 SW9       30.01R
MANASSAS*        N/A     84  62  47 S9        30.00F
LEESBURG*      SUNNY     86  61  42 S8        30.01S
WINCHESTER     MOSUNNY   81  57  44 SE7       29.99F
FRONT ROYAL*   CLEAR     82  59  44 SE8G17    29.97F
LURAY*         CLEAR     84  54  34 SW9       29.99F
$$

VAZ048-049-060>072-079>083-282200-
CENTRAL AND SOUTH CENTRAL VIRGINIA

CITY           SKY/WX    TMP DP  RH WIND       PRES   REMARKS
RICHMOND       MOSUNNY   85  63  47 S12       30.01F
CHESTERFIELD*  FAIR     N/A N/A N/A SW9G16    30.03F
PETERSBURG*    SUNNY     85  60  43 SW6       30.03S
HANOVER        SUNNY     85  61  44 S13       30.02F
TAPPAHANNOCK*  MOSUNNY   86  53  32 S8        30.02F
QUINTON*       FAIR      86  63  45 SW8       30.01S
CHARLOTTSVILLE MOSUNNY   85  59  41 S15       30.00S
GORDONSVILLE*  PTCLDY    84  61  45 S9G18     30.00S
ORANGE*        MOSUNNY   82  59  44 SW9G16    30.00S
LOUISA*        CLOUDY    88  64  45 S6        30.01R
BUMPASS*       FAIR      82  63  53 S3        30.01F
FARMVILLE*     MOSUNNY   85  64  48 SW13      30.01F
CREWE*         FAIR      85  66  53 SW6       30.02F
FORT PICKETT*  FAIR      84  58  40 SW8       30.03S
CHASE CITY*    MOCLDY    85  64  50 S7        30.04S
CLARKSVILLE*   FAIR      84  68  58 SW10      30.03S
SOUTH HILL*    PTSUNNY   83  70  63 S12       30.09S
LAWRENCEVILLE* FAIR      85  68  56 MISG      30.03S
EMPORIA*       PTSUNNY   84  68  58 S7        30.04F
$$

VAZ088>098-282200-
SOUTHEAST VIRGINIA

CITY           SKY/WX    TMP DP  RH WIND       PRES   REMARKS
NORFOLK        PTSUNNY   83  71  67 N6        30.03S
VIRGINIA BEACH PTSUNNY   79  69  71 NE5       30.03S
NORFOLK NAVAL  MOSUNNY   82  69  64 NE6       30.04F
WEST POINT*    MOSUNNY   86  64  48 S6        30.03S
SALUDA*        FAIR      78  71  79 E5        30.02F
NEWPORT NEWS   SUNNY     86  68  54 SW10      30.02F
LANGLEY AFB    PTSUNNY   86  71  61 SE9       30.02F
FORT EUSTIS    SUNNY     87  69  54 SW5       30.00F
WILLIAMSBURG*  SUNNY     90  70  51 CALM      30.03F HX  95
HR EXEC AP*    FAIR      88  70  55 W7        30.00S
FRANKLIN*      MOSUNNY   85  68  55 SW5G16    30.03F
US460-WAKEFLD  MOSUNNY   86  67  52 S8        30.02F
$$

VAZ020-022-025-037-045-282200-
WEST CENTRAL AND SOUTHWEST VIRGINIA

CITY           SKY/WX    TMP DP  RH WIND       PRES   REMARKS
STAUNTON*      SUNNY     80  59  47 S8        30.03F
WAYNESBORO*    MOCLDY    79  60  50 S10       30.03S
HOT SPRINGS VA CLOUDY    72  45  37 SE10      30.14S
LYNCHBURG      SUNNY     82  58  43 S12       30.03F
DANVILLE       MOSUNNY   82  67  60 S6        30.02F
SOUTH BOSTON*  FAIR      85  64  49 SW8       30.02F
MARTINSVILLE   PTSUNNY   80  63  55 S3        30.06S
ROANOKE        MOSUNNY   82  61  48 SE17      30.02F
BLACKSBURG     SUNNY     80  51  35 S9        30.09S
DUBLIN*        SUNNY     81  50  34 S16       30.07S
MARION*        SUNNY     80  58  47 S12G21    30.07S
HILLSVILLE*    MOSUNNY   75  62  63 S9        30.10R
RICHLANDS*     FAIR      82  47  29 SW3       30.03F
WISE*          MOSUNNY   79  46  31 S15       30.04F
ABINGDON*      SUNNY     85  49  28 W3        30.00F
$$

MDZ021>025-VAZ099-100-282200-
SOUTHERN MARYLAND AND THE DELMARVA PENINSULA

CITY           SKY/WX    TMP DP  RH WIND       PRES   REMARKS
PATUXENT RIVER PTSUNNY   77  64  64 SE12      30.02F
BAY BRIDGE APT SUNNY     82  59  44 S9        30.02S
LEONARDTOWN    SUNNY     81  59  47 SE5       30.04S
DOVER          SUNNY     80  75  85 E10       30.00F
GEORGETOWN     MOSUNNY   84  64  50 SE13      30.03R
EASTON         MOSUNNY   84  55  37 W6        30.05F
CAMBRIDGE      SUNNY     82  59  44 S7        30.02F
SALISBURY      SUNNY     83  60  45 SW10      30.03R
OCEAN CITY     MOSUNNY   69  64  84 S9        30.05S
WALLOPS ISLAND SUNNY     76  69  79 S12       30.05S
ACCOMACK*      SUNNY     82  70  66 S9        30.04S
$$

NCZ012>017-030>032-282200-
NORTH CENTRAL AND EASTERN NORTH CAROLINA

CITY           SKY/WX    TMP DP  RH WIND       PRES   REMARKS
ROANOKE RAPIDS MOCLDY    84  70  61 S14       30.03F
RALEIGH        MOSUNNY   87  67  51 SW13      30.04F
ELIZABETH CITY SUNNY     86  74  67 S8        30.04F
AHOSKIE*         N/A     85  68  56 S3        30.04S
EDENTON*       MOSUNNY   87  73  61 S7        30.05F
CURRITUCK*     MOSUNNY   87  69  55 S7        30.05S
KILL DEVIL HLS SUNNY     82  71  69 S6        30.05F
MANTEO         SUNNY     79  72  78 S15       30.07S
CAPE HATTERAS  CLOUDY    79  72  79 SW13      30.11S HAZE
TARBORO*       NOT AVBL
GOLDSBORO      MOSUNNY   89  69  51 S7        30.04S
WASHINGTON     SUNNY     87  70  56 S7        30.06R
GREENVILLE     MOSUNNY   88  68  51 SW13      30.06F
NEW BERN       SUNNY     85  74  69 SW15      30.08S
WILMINGTON     PTSUNNY   83  73  72 S12       30.10R
$$

VAZ048-282200-
ELSEWHERE

CITY           SKY/WX    TMP DP  RH WIND       PRES   REMARKS
HARRISBURG PA  MOSUNNY   82  46  28 CALM      29.99F
BALTIMORE      MOSUNNY   83  60  45 SE7       30.00S
ANNAPOLIS      SUNNY     80  61  52 SE10      30.02S
ANDREWS AFB    MOSUNNY   83  57  40 SW8       30.01R
PHILADELPHIA   PTSUNNY   83  52  34 W8        30.00F
HENDERSON NC   MOSUNNY   80  66  62 S8        30.04F
GREENSBORO     MOSUNNY   82  66  58 SW16      30.05S
ROCKY MOUNT    MOSUNNY   87  69  54 SW10      30.04F
$$

VAZ100-282200-
MARINE

STATION/POSITION TIME  TEMP    WIND        PRES    WAVE   SWELL
                       AIR SEA DIR/SP/G            HT/PER HT/PER
                 (UTC) (F)     (DEG/KT/KT) (MB)    (FT/S) (FT/S)
CAPE MAY NJ      2048   72 60  160/ 10/ 12 1017.0R
LEWES DE         2048   77 58  150/  8/ 12 1017.1R
15NM E FENWICK I 2050   57 55  180/  8/  8 1018.2R   4/ 8   3/ 8
OCEAN-CITY-INLET 2048   62 62  210/  9/ 11 1017.9F
WACHAPREAGUE VA  2048   75 74  160/  6/  8 1017.0R
THOMAS POINT MD  2100   72 59  170/ 11/ 11   N/A
GOOSES REEF MD   2100   70 60  200/  8/ 10 1017.3
COVE POINT MD    2048   71     180/ 11/ 12 1017.4F
SOLOMONS ISLAND  2048   72 61  120/  9/ 10   N/A
BISHOPS HEAD MD  2048   70 70  130/  6/  7 1017.2F
PINEY POINT MD   2048          150/ 11/ 11   N/A
POTOMAC MD       2100   69 66  120/  6/  6 1015.9    0
CAMBRIDGE MD     2036   83 68                N/A
LEWISETTA VA     2048   70 66  100/ 11/ 12 1016.3F
RAPPAHANNOCK LGT 2048          160/ 10/ 10 1017.7F
STINGRAY PT      2100   71 63  190/ 10/ 10 1017.0    0
YORK RVR RNG VA  2048   70     130/ 12/ 13 1016.2F
YORKTOWN VA      2048   72 67   70/  8/ 10 1016.4F
JAMESTOWN VA     2100   82 72  210/  6/ 10   N/A     0
DOMINION TERM VA 2048   82     210/  2/  4 1017.0F
KIPTOPEKE VA     2048      65  130/ 10/ 12   N/A
CHES BAY BRIDGE  2048   71 65  110/ 11/ 12 1016.9F
CAPE HENRY VA    2048   72     120/  7/ 10   N/A
WILLOUBY STN VA  2048   73     100/ 10/ 11 1018.2S
S CRANEY ISL VA  2048   85     240/  6/ 10 1016.8S
CAPE HENRY BUOY  2042      67                N/A     3/ 8
1ST LANDING BUOY 2100   69 64              1017.3    1
CAPE CHARLES BUO 2051      65                N/A     3/ 8
64NM E OF VA BCH 2050   62 57  200/ 10/ 12 1019.0R   5/ 8   5/ 8
DUCK PIER NC     2048   82 57  210/ 11/ 13 1017.2F
44100 DUCK FRF   2005      65                N/A     3/ 8   2/11
44056 DUCK FRF   2100      64                N/A     2/ 8
OREGON INLET NC  2048          180/ 19/ 22   N/A
HATTERAS NC      2048   77 72  200/ 10/ 13 1019.2F
DIAMOND SHLS NC  2050   78 76  210/ 17/ 19 1019.6F   5/ 8   3/ 8
CAPE LOOKOUT NC  2100   76     200/ 12/ 17 1019.5R
$$




USA.gov is the U.S. government's official web portal to all federal, state and local government web resources and services.